Regional Weather Roundup
Issued by NWS

Home | Current Version | Previous Version | Text Only | Print | Product List | Glossary On
Versions: 1 2 3 4 5 6 7 8 9 10 11 12 13 14 15 16 17 18 19 20 21 22 23 24 25 26 27 28 29 30 31 32 33 34 35 36 37 38 39 40 41 42 43 44 45 46 47 48 49 50
777
ASUS44 KJAN 271403
RWRMS

MISSISSIPPI HOURLY WEATHER ROUNDUP
NATIONAL WEATHER SERVICE JACKSON MS
900 AM CDT WED AUG 27 2014

NOTE: "FAIR: INDICATES FEW OR NO CLOUDS BELOW 12,000 FEET WITH NO
SIGNIFICANT WEATHER AND/OR OBSTRUCTIONS TO VISIBILITY.

MSZ001>002-007>008-010>013-018>021-025>028-034>036-271500-
NORTHWEST MISSISSIPPI

CITY           SKY/WX    TMP DP  RH WIND       PRES   REMARKS
CLARKSDALE     FAIR      79  70  73 CALM      30.09R
CLEVELAND      FAIR      78  70  77 CALM      30.07R
GREENWOOD      MOSUNNY   77  67  71 CALM      30.06S
GREENVILLE     SUNNY     77  69  76 CALM      30.06S
GRENADA        FAIR      79  68  69 SE5       30.08S
OLIVE BRANCH   MOSUNNY   77  73  88 CALM      30.11R
OXFORD         FAIR      77  66  69 CALM      30.11R
TUNICA         SUNNY     79  70  73 E5        30.10R
$$

MSZ003>006-009-014>017-022>024-029>033-037>039-271500-
NORTHEAST MISSISSIPPI

CITY           SKY/WX    TMP DP  RH WIND       PRES   REMARKS
BELMONT        FAIR      76  70  81 CALM      30.11S
COLUMBUS AFB   SUNNY     77  67  70 VRB3      30.09R
CORINTH        FAIR      77  70  78 CALM      30.10S
GOLDN TRIANGLE SUNNY     79  64  61 SE5       30.09S
STARKVILLE     FAIR      77  66  69 CALM      30.08S
TUPELO         SUNNY     79  67  66 SE6       30.09S
$$

MSZ040-058-271500-
CENTRAL MISSISSIPPI

CITY           SKY/WX    TMP DP  RH WIND       PRES   REMARKS
JACKSON INTL   MOSUNNY   80  67  64 E5        30.07R
JACKSON HAWKNS PTSUNNY   81  67  62 E5        30.08R
MERIDIAN KEY   SUNNY     79  62  56 NE6       30.08S
MERIDIAN NAS   MOSUNNY   78  64  61 E3        30.09R
RAYMOND        FAIR      75  72  88 CALM      30.07R
VICKSBURG      PTSUNNY   79  68  69 NE5       30.06R
$$

MSZ059>079-271500-
SOUTH MISSISSIPPI

CITY           SKY/WX    TMP DP  RH WIND       PRES   REMARKS
BROOKHAVEN     FAIR      79  70  73 CALM      30.08R
COLUMBIA       FAIR      77  72  83 MISG      30.04S
HATTIESBURG    MOSUNNY   80  68  66 NE5       30.06R
MCCOMB         SUNNY     79  69  71 E3        30.05S
NATCHEZ        SUNNY     79  70  73 E6        30.05S
PINE BELT      SUNNY     79  66  65 NE7       30.07S
$$

MSZ080>082-271500-
COASTAL MISSISSIPPI

CITY           SKY/WX    TMP DP  RH WIND       PRES   REMARKS
BAY ST LOUIS   SUNNY    N/A N/A N/A CALM      30.02S
BILOXI         SUNNY     83  71  67 NE6       30.02R
PASCAGOULA     SUNNY     80  72  76 NE5       30.03R
GULFPORT       SUNNY     83  72  69 NE5       30.01S
$$



USA.gov is the U.S. government's official web portal to all federal, state and local government web resources and services.